This is the latest recevied weather packets stored in our database for station/object KC7WRB. If no packets are shown the sender has not sent any weather packets the latest 10 day(s).
| Time | Temp. | Humidity | Pressure | Rain* | Wind** | Luminosity | Snow |
|---|---|---|---|---|---|---|---|
| 1778362352 | 25.56° C | 15% | 1019.5 hPa | 0 mm | - | 861 W/m² | - |
| 1778362050 | 26.11° C | 15% | 1019.3 hPa | 0 mm | - | 869 W/m² | - |
| 1778361747 | 26.11° C | 15% | 1019.5 hPa | 0 mm | - | 876 W/m² | - |
| 1778361442 | 25.56° C | 15% | 1019.7 hPa | 0 mm | - | 883 W/m² | - |
| 1778361139 | 25.56° C | 17% | 1019.4 hPa | 0 mm | - | 891 W/m² | - |
| 1778360836 | 25.56° C | 15% | 1019.7 hPa | 0 mm | - | 897 W/m² | - |
| 1778360533 | 25.56° C | 16% | 1019.7 hPa | 0 mm | - | 902 W/m² | - |
| 1778360233 | 25.56° C | 15% | 1019.5 hPa | 0 mm | - | 907 W/m² | - |
| 1778359932 | 25.56° C | 15% | 1019.5 hPa | 0 mm | - | 911 W/m² | - |
| 1778359629 | 25.56° C | 15% | 1019.8 hPa | 0 mm | - | 917 W/m² | - |
| 1778359325 | 25.56° C | 15% | 1019.8 hPa | 0 mm | - | 921 W/m² | - |
| 1778359021 | 25° C | 16% | 1020 hPa | 0 mm | - | 926 W/m² | - |
| 1778358720 | 25.56° C | 15% | 1019.8 hPa | 0 mm | - | 930 W/m² | - |
| 1778358415 | 25.56° C | 16% | 1019.8 hPa | 0 mm | - | 931 W/m² | - |
| 1778358110 | 25° C | 16% | 1020 hPa | 0 mm | - | 935 W/m² | - |
| 1778357806 | 25° C | 17% | 1020.2 hPa | 0 mm | - | 937 W/m² | - |
| 1778357503 | 24.44° C | 16% | 1020.1 hPa | 0 mm | - | 940 W/m² | - |
| 1778357199 | 25° C | 16% | 1020.2 hPa | 0 mm | - | 942 W/m² | - |
| 1778356894 | 25.56° C | 16% | 1020.3 hPa | 0 mm | - | 943 W/m² | - |
| 1778356590 | 25° C | 18% | 1020.5 hPa | 0 mm | - | 940 W/m² | - |
| 1778356285 | 25° C | 17% | 1020.6 hPa | 0 mm | - | 944 W/m² | - |
| 1778355985 | 24.44° C | 17% | 1020.3 hPa | 0 mm | - | 943 W/m² | - |
| 1778355682 | 24.44° C | 18% | 1020.7 hPa | 0 mm | - | 942 W/m² | - |
| 1778355378 | 25° C | 16% | 1020.7 hPa | 0 mm | - | 941 W/m² | - |
| 1778355074 | 24.44° C | 17% | 1020.6 hPa | 0 mm | - | 939 W/m² | - |
* Rain latest hour (hover to see other rain measurements)
** Current wind speed in m/s (hover to see current wind gust speed)